[[{"header":{"parameterUnit":"m.s-1","parameterCategory":1,"la1":30.2991,"la2":30.254,"lo1":-89.0895,"lo2":-89.0444,"dy":0.0017,"dx":0.0017,"nx":28,"ny":28,"refTime":"2025-05-29T09:00:00:Z","depth":0,"parameterNumber":2,"parameterNumberName":"U-component_of_WINDS"},"data":[0,0,0,0,0,0,0,0,0,0,0,0,0,0,0,0,0,0,0,0,0,0,0,0,0,0,0,0,0,0,0,0,0,0,0,0,0,0,0,0,0,0,0,0,0,0,0,0,0,0,0,0,0,0,0,0,0,0,-2.4205,-2.4203,0,-2.4027,-2.4025,-2.4023,-2.3855,-2.3853,-2.3851,-2.3849,-2.3667,-2.3664,-2.3661,0,0,0,0,0,0,0,0,0,0,0,0,0,-2.4397,-2.4395,-2.4205,-2.4203,-2.42,-2.4027,-2.4025,-2.4022,-2.3856,-2.3853,-2.3851,-2.3848,-2.3668,-2.3664,-2.3661,0,0,0,0,0,0,0,0,0,0,0,0,0,-2.4276,-2.4394,-2.4205,-2.4096,-2.4085,-2.4028,-2.4025,-2.4022,-2.3856,-2.3853,-2.385,-2.3847,-2.3669,-2.3665,-2.366,-2.3696,0,0,-2.3647,-2.3645,0,0,0,0,0,0,0,0,-2.4283,-2.4269,-2.4115,-2.4104,-2.4091,-2.396,-2.4025,-2.3913,-2.3857,-2.3943,-2.3849,-2.3846,-2.3767,-2.3754,-2.3728,-2.3688,-2.368,-2.3647,-2.3644,-2.3642,-2.3641,0,0,0,0,0,0,0,-2.4292,-2.4276,-2.4134,-2.4113,-2.4098,-2.4056,-2.4035,-2.4003,-2.3875,-2.3935,-2.3923,-2.3904,-2.376,-2.3732,-2.3722,-2.3677,-2.3647,-2.3643,-2.364,-2.3638,-2.3655,-2.3658,0,0,0,0,0,0,-2.4317,-2.4284,-2.414,-2.4129,-2.4181,-2.4055,-2.4032,-2.4005,-2.3875,-2.3852,-2.3907,-2.3897,-2.3741,-2.3728,-2.3715,-2.3747,-2.3642,-2.3638,-2.3635,-2.3652,-2.3656,-2.3659,0,0,0,0,0,0,-2.4322,-2.4306,-2.4147,-2.4203,-2.418,-2.4055,-2.4027,-2.4003,-2.3976,-2.3853,-2.3829,-2.3903,-2.3738,-2.3721,-2.3702,-2.3739,-2.3636,-2.3632,-2.3648,-2.3653,-2.3657,-2.3813,0,0,0,0,0,0,-2.4328,-2.4309,-2.4322,-2.4205,-2.4177,-2.4138,-2.4029,-2.4002,-2.3969,-2.3954,-2.3843,-2.3821,-2.3735,-2.3709,-2.3697,-2.3731,-2.3629,-2.3644,-2.365,-2.3656,-2.3804,-2.3822,-2.3838,0,0,0,0,0,-2.4336,-2.4373,-2.4324,-2.4307,-2.4191,-2.414,-2.4125,-2.4024,-2.3973,-2.3984,-2.3905,-2.3825,-2.3737,-2.3708,-2.3694,-2.3727,-2.3642,-2.3649,-2.3655,-2.3796,-2.3819,-2.3838,0,0,0,0,0,0,-2.4498,-2.4356,-2.4299,-2.43,-2.4234,-2.4112,-2.4124,-2.4051,-2.3998,-2.3986,-2.3863,-2.384,-2.3834,-2.3778,-2.3749,-2.3753,-2.3678,-2.3682,-2.379,-2.381,-2.3827,-2.3841,-2.3625,0,0,0,0,0,-2.4534,-2.4506,-2.4382,-2.4395,-2.4364,-2.4251,-2.4225,-2.4153,-2.4079,-2.405,-2.3969,-2.39,-2.3856,-2.383,-2.3783,-2.3795,-2.3767,-2.381,-2.3827,-2.3842,-2.3847,-2.3847,-2.3864,-2.3682,-2.3681,-2.3681,0,0,-2.4608,-2.4527,-2.4516,-2.4425,-2.4365,-2.4337,-2.4228,-2.4203,-2.4181,-2.4046,-2.4022,-2.3961,-2.3875,-2.3871,-2.3865,-2.3824,-2.3891,-2.385,-2.3863,-2.386,-2.3856,-2.3873,-2.3889,-2.3686,-2.3685,-2.3685,0,0,-2.4729,-2.4665,-2.4667,-2.4609,-2.452,-2.4443,-2.4444,-2.4333,-2.4287,-2.4261,-2.4159,-2.413,-2.4058,-2.4,-2.3962,-2.4059,-2.3983,-2.4047,-2.4136,-2.4138,-2.4152,-2.4164,-2.4198,-2.4212,-2.4052,-2.4053,-2.4053,0,-2.4832,-2.4786,-2.4678,-2.4659,-2.4622,-2.4497,-2.4498,-2.4447,-2.4347,-2.4323,-2.4279,-2.4184,-2.4118,-2.4098,-2.4122,-2.4095,-2.4091,-2.4059,-2.4159,-2.417,-2.418,-2.421,-2.4224,-2.4061,-2.406,-2.4059,-2.4059,0,-2.4917,-2.4887,-2.49,-2.4806,-2.4769,-2.4761,-2.465,-2.4626,-2.4557,-2.4485,-2.4459,-2.4375,-2.4309,-2.4298,-2.4231,-2.4268,-2.4245,-2.4182,-2.4104,-2.4207,-2.4234,-2.4245,-2.4073,-2.407,-2.4068,-2.4066,0,0,-2.5137,-2.4982,-2.4988,-2.4943,-2.4834,-2.4808,-2.4793,-2.4728,-2.4709,-2.4644,-2.4627,-2.4568,-2.4507,-2.4464,-2.4389,-2.439,-2.4471,-2.4325,-2.4322,-2.4355,-2.4506,-2.4554,-2.457,-2.442,-2.4421,-2.4423,-2.4513,0,-2.5238,-2.5205,-2.5106,-2.5102,-2.5072,-2.4952,-2.4938,-2.487,-2.4802,-2.4765,-2.4689,-2.4649,-2.4573,-2.4546,-2.4542,-2.4462,-2.45,-2.4454,-2.4402,-2.4402,-2.4428,-2.4584,-2.4635,-2.4724,-2.4522,-2.4524,-2.4525,0,-2.5353,-2.5295,-2.5289,-2.5179,-2.5163,-2.5153,-2.5083,-2.5051,-2.4969,-2.4919,-2.4871,-2.4786,-2.4762,-2.469,-2.4655,-2.4626,-2.4599,-2.4556,-2.4557,-2.4548,-2.447,-2.4579,-2.475,-2.4764,-2.4541,-2.454,-2.4538,0,-2.5513,-2.5433,-2.5418,-2.5384,-2.5256,-2.5251,-2.5198,-2.5113,-2.508,-2.5019,-2.4995,-2.4933,-2.4899,-2.4852,-2.4753,-2.471,-2.4729,-2.4648,-2.4686,-2.4689,-2.4696,-2.4697,-2.4865,-2.4679,-2.4679,-2.4679,-2.4678,0,-2.5637,-2.5638,-2.5488,-2.5479,-2.5475,-2.5361,-2.536,-2.5295,-2.522,-2.5196,-2.5088,-2.5067,-2.4937,-2.4901,-2.4823,-2.4805,-2.4791,-2.4749,-2.4728,-2.4759,-2.4764,-2.4739,-2.473,-2.4682,-2.4681,-2.4681,-2.468,0,-2.5816,-2.5716,-2.5691,-2.5572,-2.5542,-2.5545,-2.5442,-2.5427,-2.5352,-2.5322,-2.5308,-2.519,-2.5142,-2.5038,-2.4961,-2.4909,-2.4909,-2.4872,-2.4937,-2.4924,-2.4967,-2.4965,-2.5125,-2.514,-2.4947,-2.4949,-2.495,0,-2.5902,-2.5899,-2.5779,-2.5755,-2.5706,-2.5668,-2.5633,-2.5519,-2.5487,-2.5393,-2.539,-2.5333,-2.5281,-2.5209,-2.5116,-2.5056,-2.5017,-2.5077,-2.5007,-2.5037,-2.5017,-2.5018,-2.5017,-2.5093,-2.5096,-2.5098,-2.51,0,-2.6065,-2.6015,-2.5969,-2.5905,-2.5866,-2.581,-2.5748,-2.5734,-2.5605,-2.5574,-2.5522,-2.5482,-2.5403,-2.5348,-2.5274,-2.5217,-2.5137,-2.5122,-2.5127,-2.5158,-2.5196,-2.5175,-2.4979,-2.5119,-2.5117,-2.5116,-2.5115,-2.5114,-2.6199,-2.619,-2.6104,-2.6056,-2.5997,-2.5941,-2.5922,-2.5843,-2.5799,-2.5726,-2.5661,-2.5616,-2.5532,-2.5424,-2.5373,-2.5335,-2.5295,-2.5304,-2.5305,-2.5309,-2.5322,-2.5202,-2.5321,-2.532,-2.532,-2.5319,-2.5319,0,-2.6356,-2.6294,-2.625,-2.6167,-2.6128,-2.6056,-2.5983,-2.5955,-2.5917,-2.5845,-2.5796,-2.5737,-2.5682,-2.5584,-2.552,-2.5508,-2.547,-2.5496,-2.5495,-2.5483,-2.5361,-2.5363,-2.5528,-2.5528,-2.5528,-2.5528,-2.5527,-2.5527,-2.6433,-2.6414,-2.6354,-2.6304,-2.6241,-2.6197,-2.6161,-2.6108,-2.6051,-2.5989,-2.5943,-2.5879,-2.5796,-2.5726,-2.5671,-2.5644,-2.5625,-2.5662,-2.5624,-2.5512,-2.5492,-2.5473,-2.5474,-2.566,-2.566,-2.5748,-2.5749,-2.575]},{"header":{"parameterUnit":"m.s-1","parameterCategory":1,"la1":30.2991,"la2":30.254,"lo1":-89.0895,"lo2":-89.0444,"dy":0.0017,"dx":0.0017,"nx":28,"ny":28,"refTime":"2025-05-29T09:00:00:Z","depth":0,"parameterNumber":3,"parameterNumberName":"V-component_of_WINDS"},"data":[0,0,0,0,0,0,0,0,0,0,0,0,0,0,0,0,0,0,0,0,0,0,0,0,0,0,0,0,0,0,0,0,0,0,0,0,0,0,0,0,0,0,0,0,0,0,0,0,0,0,0,0,0,0,0,0,0,0,-4.0125,-4.0124,0,-4.0094,-4.0094,-4.0094,-3.9963,-3.996,-3.9957,-3.9954,-3.9925,-3.9927,-3.9929,0,0,0,0,0,0,0,0,0,0,0,0,0,-4.0072,-4.0074,-4.0125,-4.0124,-4.0124,-4.0094,-4.0094,-4.0093,-3.9964,-3.996,-3.9956,-3.9953,-3.9924,-3.9926,-3.9929,0,0,0,0,0,0,0,0,0,0,0,0,0,-4.0074,-4.0074,-4.0125,-4.0056,-4.0049,-4.0094,-4.0094,-4.0093,-3.9964,-3.996,-3.9955,-3.9951,-3.9923,-3.9926,-3.9929,-4.0039,0,0,-3.9939,-3.994,0,0,0,0,0,0,0,0,-4.0074,-4.0076,-4.0066,-4.006,-4.0053,-4.0028,-4.0064,-4.0075,-3.9966,-3.9997,-3.9954,-3.9949,-3.9963,-3.9962,-3.9967,-4.0038,-4.0037,-3.9939,-3.9941,-3.9942,-3.9943,0,0,0,0,0,0,0,-4.0074,-4.0076,-4.0113,-4.0066,-4.0058,-4.0026,-4.0022,-4.0066,-4.0006,-3.9994,-3.9984,-3.9982,-3.9958,-3.9964,-3.9965,-4.0036,-3.9939,-3.9942,-3.9943,-3.9945,-4.0196,-4.0201,0,0,0,0,0,0,-4.0083,-4.0077,-4.0114,-4.0112,-4.0052,-4.0031,-4.0026,-4.0041,-4.0005,-3.9995,-3.9986,-3.9976,-3.9961,-3.9962,-3.9964,-4.009,-3.9942,-3.9945,-3.9947,-4.0192,-4.0197,-4.0203,0,0,0,0,0,0,-4.0083,-4.0088,-4.0115,-4.0092,-4.0093,-4.0037,-4.0055,-4.0042,-4.0048,-3.9999,-3.9988,-4.0003,-3.9957,-3.9959,-4.0021,-4.0087,-3.9946,-3.9949,-4.0186,-4.0193,-4.02,-4.0344,0,0,0,0,0,0,-4.0082,-4.0088,-4.0129,-4.0094,-4.0095,-4.0173,-4.0059,-4.0045,-4.0053,-4.004,-4.0012,-4.0003,-3.9954,-4.0017,-4.0024,-4.0089,-3.9952,-4.018,-4.0189,-4.0198,-4.0333,-4.0355,-4.0374,0,0,0,0,0,-4.008,-4.0172,-4.0132,-4.0137,-4.0145,-4.0177,-4.0178,-4.0119,-4.0059,-4.01,-4.0069,-4.0004,-4.0079,-4.0025,-4.0032,-4.0098,-4.0175,-4.0186,-4.0197,-4.0324,-4.0351,-4.0374,0,0,0,0,0,0,-4.0217,-4.0166,-4.0121,-4.0204,-4.0196,-4.0155,-4.0205,-4.015,-4.0159,-4.0147,-4.0074,-4.0069,-4.0142,-4.0126,-4.0067,-4.0203,-4.0116,-4.0129,-4.021,-4.0235,-4.0256,-4.0258,-3.9954,0,0,0,0,0,-4.0257,-4.0287,-4.0241,-4.0318,-4.0316,-4.0262,-4.0274,-4.0229,-4.0218,-4.0215,-4.0188,-4.018,-4.0202,-4.0218,-4.0235,-4.033,-4.0322,-4.0379,-4.04,-4.0417,-4.0429,-4.0478,-4.0503,-4.0238,-4.0238,-4.0238,0,0,-4.0339,-4.0315,-4.0338,-4.0345,-4.0333,-4.0367,-4.026,-4.03,-4.0324,-4.0221,-4.0277,-4.0258,-4.0245,-4.0324,-4.0357,-4.0313,-4.05,-4.0431,-4.0445,-4.0447,-4.0492,-4.0517,-4.0539,-4.0246,-4.0244,-4.0243,0,0,-4.0506,-4.0491,-4.0553,-4.0544,-4.0528,-4.0491,-4.0506,-4.0474,-4.0457,-4.0513,-4.0436,-4.0464,-4.0503,-4.0496,-4.0499,-4.0664,-4.0604,-4.0671,-4.0779,-4.0828,-4.0848,-4.0866,-4.0925,-4.0948,-4.0683,-4.0684,-4.0684,0,-4.0611,-4.0657,-4.0593,-4.0637,-4.0642,-4.055,-4.0613,-4.0607,-4.0598,-4.0604,-4.0554,-4.0601,-4.0586,-4.0662,-4.0702,-4.0707,-4.0722,-4.0674,-4.0851,-4.0868,-4.0884,-4.0939,-4.0962,-4.0692,-4.0691,-4.069,-4.0689,0,-4.0787,-4.0821,-4.0873,-4.0866,-4.0877,-4.0931,-4.0874,-4.0893,-4.0848,-4.0817,-4.0875,-4.0853,-4.0865,-4.0879,-4.0836,-4.095,-4.0923,-4.0863,-4.0775,-4.0919,-4.0969,-4.099,-4.0704,-4.0701,-4.0698,-4.0696,0,0,-4.1039,-4.0995,-4.1016,-4.1011,-4.0987,-4.1012,-4.1062,-4.1072,-4.109,-4.1087,-4.1127,-4.1162,-4.1106,-4.1109,-4.1064,-4.1107,-4.1239,-4.1041,-4.104,-4.1079,-4.1364,-4.1409,-4.1435,-4.1199,-4.1203,-4.1206,-4.1365,0,-4.1198,-4.128,-4.1223,-4.1315,-4.1345,-4.1258,-4.1301,-4.1292,-4.1264,-4.1286,-4.1255,-4.1281,-4.1206,-4.1207,-4.1245,-4.1215,-4.1295,-4.1203,-4.1237,-4.1239,-4.1243,-4.1461,-4.1509,-4.166,-4.1384,-4.1387,-4.139,0,-4.1395,-4.14,-4.1495,-4.1464,-4.1474,-4.1514,-4.1519,-4.1541,-4.1529,-4.1505,-4.1509,-4.1452,-4.1499,-4.1413,-4.1477,-4.1416,-4.1426,-4.1414,-4.1418,-4.1419,-4.1323,-4.1468,-4.1706,-4.1729,-4.1421,-4.1418,-4.1416,0,-4.157,-4.16,-4.166,-4.1659,-4.1625,-4.1655,-4.1642,-4.1625,-4.1635,-4.1639,-4.1645,-4.1656,-4.1662,-4.1672,-4.162,-4.1562,-4.1691,-4.16,-4.1674,-4.1676,-4.1705,-4.1704,-4.1949,-4.1713,-4.1712,-4.1712,-4.1711,0,-4.1754,-4.1815,-4.1738,-4.1776,-4.1842,-4.1776,-4.1844,-4.1822,-4.1807,-4.1839,-4.1764,-4.1796,-4.1726,-4.1751,-4.1711,-4.1771,-4.1774,-4.1757,-4.1745,-4.1764,-4.1766,-4.177,-4.1758,-4.1718,-4.1716,-4.1715,-4.1714,0,-4.196,-4.1911,-4.1971,-4.1933,-4.1925,-4.1976,-4.1944,-4.1977,-4.1944,-4.1985,-4.1991,-4.194,-4.1965,-4.1915,-4.1934,-4.1907,-4.1991,-4.1963,-4.1995,-4.1987,-4.2064,-4.2057,-4.2319,-4.235,-4.2095,-4.2097,-4.2099,0,-4.208,-4.2125,-4.2092,-4.2108,-4.2099,-4.2125,-4.2135,-4.2072,-4.2085,-4.2074,-4.2109,-4.2127,-4.2139,-4.2184,-4.2149,-4.2163,-4.2135,-4.2226,-4.2137,-4.2154,-4.2137,-4.2135,-4.2139,-4.2244,-4.2247,-4.225,-4.2252,0,-4.2299,-4.2273,-4.2289,-4.2297,-4.231,-4.2314,-4.2312,-4.233,-4.2263,-4.2282,-4.2306,-4.2315,-4.2334,-4.2354,-4.236,-4.2347,-4.229,-4.228,-4.2298,-4.2317,-4.2334,-4.2326,-4.2046,-4.2275,-4.2272,-4.2271,-4.227,-4.2269,-4.2466,-4.2502,-4.2484,-4.2505,-4.2497,-4.2497,-4.2526,-4.2497,-4.2516,-4.2526,-4.2488,-4.2521,-4.2507,-4.2509,-4.2503,-4.2528,-4.2488,-4.2513,-4.252,-4.2527,-4.254,-4.233,-4.2529,-4.2528,-4.2528,-4.2527,-4.2527,0,-4.2681,-4.2665,-4.2685,-4.2684,-4.2701,-4.2644,-4.2639,-4.2657,-4.2687,-4.2679,-4.2692,-4.272,-4.2739,-4.2706,-4.272,-4.2747,-4.2721,-4.2753,-4.275,-4.2748,-4.2575,-4.2558,-4.2774,-4.2774,-4.2774,-4.2773,-4.2773,-4.2773,-4.2795,-4.2853,-4.2824,-4.2878,-4.2861,-4.2893,-4.2895,-4.2895,-4.2888,-4.2923,-4.2938,-4.2916,-4.2898,-4.2909,-4.2925,-4.2914,-4.2923,-4.2965,-4.2945,-4.2784,-4.276,-4.2737,-4.2721,-4.2967,-4.2967,-4.3116,-4.3117,-4.3118]}]]